Weather History for Lone Rock, WI

Change the Weather History Date:

Tuesday, May 7, 2013

  Actual Average Record
Temperature  
Mean Temperature 62 °F -  
Max Temperature 81 °F 65 °F 82 °F (2000)
Min Temperature 44 °F 44 °F 37 °F (2006)
Degree Days  
Heating Degree Days 3    
Growing Degree Days 12 (Base 50)    
Moisture  
Dew Point 42 °F    
Average Humidity 55    
Maximum Humidity 93    
Minimum Humidity 15    
Precipitation  
Precipitation 0.00 in - - ()
Sea Level Pressure  
Sea Level Pressure 30.00 in    
Wind  
Wind Speed 1 mph (ESE)    
Max Wind Speed 9 mph    
Max Gust Speed -    
Visibility 10 miles    
Events      
Averages and records for this station are not official NWS values.
T = Trace of Precipitation, MM = Missing Value Source: NWS Daily Summary

Daily Weather History Graph

Daily Weather History Graph

Search for Another Location

Airport:

Trip Planner

Search our weather history database for the weather conditions in past years. The results will help you decide how hot, cold, wet, or windy it might be!

Date:

Astronomy

May. 07, 2013 Rise Set
Actual Time 5:45 AM CDT 8:09 PM CDT
Civil Twilight 5:13 AM CDT 8:41 PM CDT
Nautical Twilight 4:34 AM CDT 9:21 PM CDT
Astronomical Twilight 3:50 AM CDT 10:05 PM CDT
Moon 4:23 AM CDT (5/7) 6:06 PM CDT (5/7)
Length of Visible Light 15h 27m
Length of Day
14h 23m
Waning Crescent, 5% of the Moon is Illuminated
May 7
Waning Crescent
May 9
New
May 17
First Quarter
May 24
Full
May 31
Last Quarter

Hourly Weather History & Observations

Time (CDT) Temp. Dew Point Humidity Pressure Visibility Wind Dir Wind Speed Gust Speed Precip Events Conditions
12:56 AM 51.1 °F 46.9 °F 86% 30.01 in 10.0 mi Calm Calm - N/A   Clear
1:56 AM 51.1 °F 46.9 °F 86% 30.01 in 10.0 mi Calm Calm - N/A   Clear
2:56 AM 48.9 °F 46.0 °F 90% 30.01 in 10.0 mi Calm Calm - N/A   Clear
3:56 AM 48.0 °F 45.0 °F 89% 30.02 in 10.0 mi Calm Calm - N/A   Clear
4:56 AM 46.0 °F 44.1 °F 93% 30.02 in 10.0 mi Calm Calm - N/A   Clear
5:56 AM 44.1 °F 42.1 °F 93% 30.04 in 8.0 mi Calm Calm - N/A   Clear
6:56 AM 48.9 °F 46.0 °F 90% 30.05 in 10.0 mi Calm Calm - N/A   Clear
7:56 AM 54.0 °F 48.0 °F 80% 30.05 in 10.0 mi Calm Calm - N/A   Clear
8:56 AM 63.0 °F 48.9 °F 60% 30.05 in 10.0 mi Calm Calm - N/A   Clear
9:56 AM 70.0 °F 48.0 °F 46% 30.04 in 10.0 mi ESE 4.6 mph - N/A   Clear
10:56 AM 73.9 °F 41.0 °F 30% 30.03 in 10.0 mi Calm Calm - N/A   Clear
11:56 AM 75.9 °F 37.9 °F 25% 30.02 in 10.0 mi Variable 4.6 mph - N/A   Clear
12:56 PM 78.1 °F 35.1 °F 21% 30.00 in 10.0 mi East 9.2 mph - N/A   Clear
2:56 PM 79.0 °F 32.0 °F 18% 29.98 in 10.0 mi East 8.1 mph - N/A   Clear
3:56 PM 79.0 °F 30.0 °F 17% 29.96 in 10.0 mi Calm Calm - N/A   Clear
4:56 PM 80.1 °F 28.0 °F 15% 29.96 in 10.0 mi Calm Calm - N/A   Clear
5:56 PM 79.0 °F 30.9 °F 17% 29.96 in 10.0 mi Calm Calm - N/A   Clear
6:56 PM 77.0 °F 37.0 °F 24% 29.95 in 10.0 mi South 3.5 mph - N/A   Clear
7:56 PM 69.1 °F 44.1 °F 40% 29.96 in 10.0 mi Calm Calm - N/A   Clear
8:56 PM 64.0 °F 46.0 °F 52% 29.96 in 10.0 mi ENE 6.9 mph - N/A   Clear
9:56 PM 60.1 °F 48.0 °F 64% 29.98 in 10.0 mi Calm Calm - N/A   Clear
10:56 PM 60.1 °F 45.0 °F 57% 29.98 in 10.0 mi Calm Calm - N/A   Clear
11:56 PM 55.9 °F 48.0 °F 75% 29.98 in 10.0 mi Calm Calm - N/A   Clear